Location: *
(40.4000°N, 15.1200°E)
Time: 22:03:07
(UTC+00:00)

Cosmos 2218 Rocket - Pass Details

Date: 09 April 2020
Orbit: 957 x 1005 km, 82.9° (Epoch: 24 May)

Event Time Altitude Azimuth Distance (km) Brightness Sun altitude
Rises 19:11:42 0° 358° (N) 3,667 7.4 -18.5°
Reaches altitude 10° 19:14:19 10° 4° (N) 2,723 6.6 -19.0°
Maximum altitude 19:20:19 47° 78° (ENE) 1,273 4.3 -19.9°
Enters shadow 19:22:19 36° 124° (ESE) 1,509 4.4 -20.3°
